Regional Weather Roundup
Issued by NWS

Home | Current Version | Previous Version | Graphics & Text | Print | Product List | Glossary On
Versions: 1 2 3 4 5 6 7 8 9 10 11 12 13 14 15 16 17 18 19 20 21 22 23 24 25 26 27 28
000
ASUS45 KCYS 260810
RWRWY

WYOMING REGIONAL WEATHER ROUNDUP
NATIONAL WEATHER SERVICE CHEYENNE WY
100 AM MST SUN FEB 26 2017

NOTE:  "FAIR" INDICATES FEW OR NO CLOUDS BELOW 12,000 FEET
WITH NO SIGNIFICANT WEATHER AND/OR OBSTRUCTIONS TO VISIBILITY.

WYZ001-260900-
YELLOWSTONE NATIONAL PARK

CITY           SKY/WX    TMP DP  RH WIND       PRES   REMARKS
LK YELLOWSTONE   N/A      5   2  87 CALM      29.74F
W YELLOWSTONE  NOT AVBL

$$
WYZ002>013-054>058-071-098>099-260900-
NORTHERN WYOMING

CITY           SKY/WX    TMP DP  RH WIND       PRES   REMARKS
JACKSON        CLOUDY    10   9  92 W7        29.82S WCI   0
CODY           FAIR      22   2  42 W25G38    29.68F WCI   5
GREYBULL       FAIR      22  10  60 E5        29.75R WCI  16
WORLAND        FAIR      15   9  76 S8        29.74S WCI   4
SHERIDAN       FAIR      16   6  65 S6        29.69S WCI   7
BUFFALO        FAIR      13  -1  54 W3        29.67S
GILLETTE       CLOUDY    20  16  84 SW13      29.69F WCI   7
HULETT         CLOUDY    23  16  74 SW9       29.69R WCI  13
NEWCASTLE      FAIR      10   9  92 E5        29.74R WCI   2

$$
WYZ014>020-022>026-101>103-260900-
CENTRAL WYOMING

CITY           SKY/WX    TMP DP  RH WIND       PRES   REMARKS
BIG PINEY      FAIR     -10 -12  91 N8        29.83S WCI -26
PINEDALE       FAIR      -6  -9  84 N5        29.82S WCI -17
DUBOIS         FAIR       9  -2  61 NW15G24   29.71S WCI  -8
LANDER         FAIR       7  -6  55 W8        29.73F WCI  -6
RIVERTON       FAIR      12  -2  53 W21       29.73F WCI  -7
CASPER         FAIR      11   0  61 SW18G29   29.74S WCI  -7
DOUGLAS        FAIR       6  -2  69 N7        29.75R WCI  -6

$$
WYZ021-027>030-104>119-260900-
SOUTHERN WYOMING

CITY           SKY/WX    TMP DP  RH WIND       PRES   REMARKS
EVANSTON       FAIR       2  -3  80 SW10      29.85F WCI -14
KEMMERER         N/A      1  -2  85 W8        29.83S WCI -12
FORT BRIDGER   FAIR       8   3  79 SW17      29.88S WCI -10
ROCK SPRINGS   FAIR       7   1  76 SW17      29.84S WCI -12
DIXON            N/A     -1  -6  82 CALM      29.91S
RAWLINS        FAIR       9   2  73 W20       29.78R WCI -10
SARATOGA       FAIR      10   5  79 W13       29.82R WCI  -5
LARAMIE        FAIR       9  -2  61 W16       29.72R WCI  -8
CHEYENNE       FAIR      11  -1  58 W8        29.76R WCI  -1
TORRINGTON     FAIR      19   7  59 W16G24    29.78S WCI   4
PINE BLUFFS    FAIR       7   0  72 W8        29.80S WCI  -6

$$




USA.gov is the U.S. government's official web portal to all federal, state and local government web resources and services.